Location: Arpaise
(41.0333°N, 14.7333°E)
Time: 17:12:31
(UTC+00:00)

SeaSat 1 - Pass Details

Date: 05 July 2020
Orbit: 744 x 748 km, 108.0° (Epoch: 11 August)

Event Time Altitude Azimuth Distance (km) Brightness Sun altitude
Rises 23:44:14 0° 33° (NNE) 3,197 6.8 -25.7°
Reaches altitude 10° 23:46:38 10° 40° (NE) 2,269 5.7 -25.6°
Enters shadow 23:51:17 42° 110° (ESE) 1,066 3.1 -25.4°
